Regional Weather Roundup
Issued by NWS

Home | Current Version | Previous Version | Graphics & Text | Print | Product List | Glossary On
Versions: 1 2 3 4 5 6 7 8 9 10 11 12 13 14 15 16 17 18 19 20 21 22 23 24 25 26 27 28 29 30 31 32 33 34 35 36 37 38 39 40 41 42 43 44 45 46 47 48 49 50
000
ASUS43 KMKX 080610
RWRWI

WISCONSIN REGIONAL WEATHER ROUNDUP
NATIONAL WEATHER SERVICE MILWAUKEE/SULLIVAN WI
1200 AM CST MON FEB 08 2016

NOTE: "FAIR" INDICATES FEW OR NO CLOUDS BELOW 12,000 FEET WITH NO
SIGNIFICANT WEATHER AND/OR OBSTRUCTIONS TO VISIBILITY.

WIZ001-002-006>008-014>016-023>028-080700-
NORTHWEST WISCONSIN

CITY           SKY/WX    TMP DP  RH WIND       PRES   REMARKS
SUPERIOR ARPT  CLOUDY    20  13  76 NW16G23   29.71R WCI   5
6HR MIN TEMP:  20; 6HR MAX TEMP:  32;

ASHLAND        LGT SNOW  28  26  92 NW9       29.62R FOG     WCI  19
6HR MIN TEMP:  28; 6HR MAX TEMP:  34; 6HR PCP:  0.04;

HAYWARD        FLURRIES  22  17  81 NW8       29.63R WCI  12
6HR MIN TEMP:  22; 6HR MAX TEMP:  32; 6HR PCP:  0.03;

SIREN          FLURRIES  18  11  76 NW12G18   29.72R WCI   5
6HR MIN TEMP:  18; 6HR MAX TEMP:  29;

CUMBERLAND     CLOUDY    18  14  86 NW14G25   29.66S WCI   4
RICE LAKE      CLOUDY    20  13  76 W14G20    29.68S WCI   6
6HR MIN TEMP:  20; 6HR MAX TEMP:  34;

CHETEK         FLURRIES  20  16  83 NW10G17   29.66R WCI   9
6HR MIN TEMP:  20; 6HR MAX TEMP:  35;

LADYSMITH      LGT SNOW  24  21  87 NW15G22   29.62S WCI  12
6HR MIN TEMP:  24; 6HR MAX TEMP:  35;

EAU CLAIRE     FLURRIES  22  14  71 NW16G23   29.67R WCI   8
6HR MIN TEMP:  22; 6HR MAX TEMP:  36; 6HR PCP: TRACE;

MENOMONIE      LGT SNOW  21  16  79 W16       29.69R WCI   7
6HR MIN TEMP:  21; 6HR MAX TEMP:  37;

NEW RICHMOND   CLOUDY    18  11  74 NW17G25   29.72S WCI   2
6HR MIN TEMP:  18; 6HR MAX TEMP:  31;

OSCEOLA        CLOUDY    18  10  71 NW14G21   29.77R WCI   5
6HR MIN TEMP:  18; 6HR MAX TEMP:  30;

$$

WIZ003>005-009-010-017-018-080700-
NORTH CENTRAL WISCONSIN

CITY           SKY/WX    TMP DP  RH WIND       PRES   REMARKS
MANITOWISH WTR FLURRIES  28  26  95 W9        29.51S WCI  19
6HR MIN TEMP:  28; 6HR MAX TEMP:  32;

ARBOR VITAE    FLURRIES  32  30  92 NW7       29.51S WCI  25
6HR MIN TEMP:  32; 6HR MAX TEMP:  34;

WOODRUFF       FLURRIES  32  30  92 NW7       29.51S WCI  25
6HR MIN TEMP:  32; 6HR MAX TEMP:  34;

RHINELANDER    LGT SNOW  31  28  89 W9        29.51S FOG     WCI  23
6HR MIN TEMP:  31; 6HR MAX TEMP:  34; 6HR PCP:  0.01;

EAGLE RIVER    CLOUDY    30  30  99 CALM      29.50S
LAND O LAKES   CLOUDY    31  30  97 W3        29.50S
6HR MIN TEMP:  31; 6HR MAX TEMP:  33;

PHILLIPS       FLURRIES  25  23  91 W6        29.55S WCI  18
6HR MIN TEMP:  25; 6HR MAX TEMP:  32; 6HR PCP:  0.02;

TOMAHAWK       CLOUDY    28  25  87 W13       29.54S WCI  18
6HR MIN TEMP:  28; 6HR MAX TEMP:  33;

MEDFORD        FLURRIES  25  23  90 W13G23    29.56S WCI  14
6HR MIN TEMP:  25; 6HR MAX TEMP:  34;

MERRILL        LGT SNOW  30  28  94 W7        29.55S WCI  23
6HR MIN TEMP:  30; 6HR MAX TEMP:  36;

$$

WIZ029-030-035-036-043>047-080700-
CENTRAL WISCONSIN

CITY           SKY/WX    TMP DP  RH WIND       PRES   REMARKS
WAUSAU         CLOUDY    32  27  81 NW12      29.54R WCI  23
6HR MIN TEMP:  32; 6HR MAX TEMP:  37; 6HR PCP: TRACE;

MOSINEE        CLOUDY    30  28  93 W14G23    29.57R WCI  20
MARSHFIELD     LGT SNOW  27  22  81 W13       29.58R WCI  16
6HR MIN TEMP:  28; 6HR MAX TEMP:  37; 6HR PCP: TRACE;

STEVENS POINT  CLOUDY    30  27  87 W7G16     29.57S WCI  23
6HR MIN TEMP:  30; 6HR MAX TEMP:  36;

WAUPACA        CLOUDY    37  29  75 W8        29.57S WCI  30
6HR MIN TEMP:  37; 6HR MAX TEMP:  40;

WAUTOMA        CLOUDY    35  31  86 W8        29.58F WCI  28
6HR MIN TEMP:  35; 6HR MAX TEMP:  38;

WISC RAPIDS    CLOUDY    31  24  75 NW10      29.60S WCI  22
6HR MIN TEMP:  31; 6HR MAX TEMP:  38; 6HR PCP: TRACE;

CAMP DOUGLAS   MIX PCPN  30  30  97 NW16      29.61S WCI  19
6HR MIN TEMP:  30; 6HR MAX TEMP:  37; 6HR PCP: TRACE;

$$

WIZ011>013-019>022-031-037>040-048>050-080700-
NORTHEAST WISCONSIN

CITY           SKY/WX    TMP DP  RH WIND       PRES   REMARKS
ANTIGO         LGT SNOW  30  30  99 SW7       29.52F WCI  23
6HR MIN TEMP:  30; 6HR MAX TEMP:  35;

SHAWANO        CLOUDY    37  28  69 CALM      29.56S
6HR MIN TEMP:  37; 6HR MAX TEMP:  40;

OCONTO         CLOUDY    35  28  75 CALM      29.56F
6HR MIN TEMP:  35; 6HR MAX TEMP:  38;

STURGEON BAY   CLOUDY    36  27  69 SW6       29.59S WCI  31
6HR MIN TEMP:  36; 6HR MAX TEMP:  37;

GREEN BAY      CLOUDY    35  28  75 SW5       29.57F WCI  31
6HR MIN TEMP:  35; 6HR MAX TEMP:  38;

MANITOWOC      PTCLDY    34  27  75 SW5       29.59F WCI  30
6HR MIN TEMP:  34; 6HR MAX TEMP:  40;

APPLETON       CLOUDY    34  27  75 S7        29.55F WCI  28
CLINTONVILLE   CLOUDY    34  28  80 SW5       29.56F WCI  30
OSHKOSH        CLOUDY    35  27  72 SW8       29.58F WCI  29
6HR MIN TEMP:  34; 6HR MAX TEMP:  37;

$$

WIZ032>034-041-042-053>061-080700-
SOUTHWEST WISCONSIN

CITY           SKY/WX    TMP DP  RH WIND       PRES   REMARKS
LA CROSSE      LGT SNOW  26  21  81 NW18      29.68R WCI  13
6HR MIN TEMP:  26; 6HR MAX TEMP:  38; 6HR PCP: TRACE;

SPARTA         CLOUDY    28  22  76 W13G30    29.66R WCI  18
6HR MIN TEMP:  28; 6HR MAX TEMP:  38;

VIROQUA        CLOUDY    27  24  87 NW16      29.63S WCI  15
6HR MIN TEMP:  27; 6HR MAX TEMP:  35;

BOSCOBEL       CLOUDY    32  25  75 W10G24    29.67R WCI  24
6HR MIN TEMP:  32; 6HR MAX TEMP:  39; 6HR PCP:  0.01;

PRAIRIE DU CHI CLOUDY    30  20  65 NW20G28   29.70S WCI  17
6HR MIN TEMP:  30; 6HR MAX TEMP:  37;

PLATTEVILLE    CLOUDY    32  31  94 W17G30    29.65S WCI  21
6HR MIN TEMP:  32; 6HR MAX TEMP:  35;

$$

WIZ056-057-062-063-064-067-068-080700-
SOUTH CENTRAL WISCONSIN

CITY           SKY/WX    TMP DP  RH WIND       PRES   REMARKS
REEDSBURG      DRIZZLE   33  32  96 W7        29.60S WCI  27
6HR MIN TEMP:  33; 6HR MAX TEMP:  36;

BARABOO/DELLS  DRIZZLE   33  30  87 SW9       29.59F WCI  26
6HR MIN TEMP:  33; 6HR MAX TEMP:  36;

LONE ROCK      FLURRIES  34  31  88 W8        29.63S WCI  27
6HR MIN TEMP:  34; 6HR MAX TEMP:  37; 6HR PCP: TRACE;

MINERAL POINT  LGT SNOW  34  32  93 W14       29.62S WCI  24
MADISON        CLOUDY    33  28  81 MISG      29.61F
6HR MIN TEMP:  33; 6HR MAX TEMP:  36;

MIDDLETON      CLOUDY    35  30  82 SW7       29.61F WCI  29
6HR MIN TEMP:  35; 6HR MAX TEMP:  38;

WATERTOWN      CLOUDY    32  32 100 SW7       29.61S WCI  26
6HR MIN TEMP:  32; 6HR MAX TEMP:  35;

MONROE         CLOUDY    32  30  93 SW14      29.63F WCI  22
JANESVILLE     CLOUDY    32  30  93 SW7       29.64F WCI  26
$$

WIZ051-052-058>065-066-070>072-080700-
SOUTHEAST WISCONSIN

CITY           SKY/WX    TMP DP  RH WIND       PRES   REMARKS
MILWAUKEE      CLEAR     31  26  82 SW6       29.63F WCI  25
6HR MIN TEMP:  31; 6HR MAX TEMP:  39;

WAUKESHA       CLEAR     30  27  86 SW8       29.62F WCI  23
MILWAUKEE/TIMM CLEAR     32  27  80 SW7       29.63S WCI  26
RACINE         CLEAR     31  25  78 S5        29.66S WCI  26
6HR MIN TEMP:  31; 6HR MAX TEMP:  40;

BURLINGTON     CLEAR     29  26  88 SW7       29.64F WCI  22
6HR MIN TEMP:  29; 6HR MAX TEMP:  35;

KENOSHA        CLEAR     31  26  82 SW10      29.65F WCI  22
6HR MIN TEMP:  31; 6HR MAX TEMP:  38;

FOND DU LAC    CLOUDY    33  26  75 SW8       29.59F WCI  26
6HR MIN TEMP:  32; 6HR MAX TEMP:  38;

SHEBOYGAN      PTCLDY    28  23  81 S6        29.59F WCI  22
6HR MIN TEMP:  28; 6HR MAX TEMP:  37;

WEST BEND      PTCLDY    32  27  80 CALM      29.60F
JUNEAU         CLOUDY    32  28  85 SW8       29.60F WCI  25
6HR MIN TEMP:  32; 6HR MAX TEMP:  35;

$$

LSZ147-162-080700-
LAKE SUPERIOR

STATION/POSITION TIME  TEMP    WIND        PRES    WAVE
                       AIR SEA DIR/SP/G            HT/PER
                 (UTC) (F)     (DEG/KT/KT) (MB)    (FT/S)
DEVILS ISLAND    0600   26      30/ 16/ 19 1004.5R
PORT WING        0500   28     320/ 12/ 17 1003.7R
SAXON HARBOR     0500   31                 1000.0F
$$

LMZ867-665-643>646-080700-
LAKE MICHIGAN

STATION/POSITION TIME  TEMP    WIND        PRES    WAVE
                       AIR SEA DIR/SP/G            HT/PER
                 (UTC) (F)  C1F1C2F2C3F3C4F4C5F5C6F6C7F7C8M1C9M2Ca!


USA.gov is the U.S. government's official web portal to all federal, state and local government web resources and services.